Orbital Elements at Epoch 2459000.5 (2020-May-31.0) TDB
Reference: JPL 22 (heliocentric ecliptic J2000)
Element | Value | Uncertainty (1-sigma) | Units |
e | .2021522482764188 | 4.2006e-08 | |
a | 3.137529984089002 | 1.7386e-08 | au |
q | 2.503271243770734 | 1.3509e-07 | au |
i | 1.381547191613408 | 4.935e-06 | deg |
node | 171.9112690826525 | 0.00016946 | deg |
peri | 172.1708426476806 | 0.0001698 | deg |
M | 257.8516080684975 | 1.1681e-05 | deg |
tp | 2459576.482498764045 (2021-Dec-27.98249876) | 6.8008e-05 | TDB |
period | 2029.92622433157 5.56 | 1.6873e-05 4.62e-08 | d yr |
n | .1773463467218094 | 1.4741e-09 | deg/d |
Q | 3.771788724407271 | 2.0901e-08 | au |
|
| | Orbit Determination Parameters
Additional Information
|